Weather in Tilichiki

Russia / Kamchatka Krai     60°25′41″N   166°03′20″E
temp.,
°C
wind,
m/s
gust,
m/s
humid.,
%
clouds,
%
prec.,
mm/h
press.,
hPa
HPBL,
m
9 december, thu
thu900:00−20n349897 0.0 99767
03:00−23n349964 0.0 99872
06:00−24n3499100 0.0 99891
09:00−24n3399100 0.0 99968
12:00−22n3495100 0.1 1000133
15:00−25n33917 0.0 100259
18:00−28nnw3394100 0.0 100552
21:00−28nnw339320 0.0 100751
10 december, fri
fri1000:00−28nw339213 0.0 101060
03:00−29nw339312 0.0 101349
06:00−30nnw329312 0.0 101748
09:00−30nnw339012 0.0 101954
12:00−29n33878 0.0 102273
15:00−29n33878 0.0 102458
18:00−30n349010 0.0 102662
21:00−31n349212 0.0 102760
11 december, sat
sat1100:00−30n459283 0.0 102878
03:00−29n4592100 0.0 102789
06:00−25n4595100 0.1 1027114
09:00−23n4599100 1.0 1026123
12:00−20n4699100 2.4 1024141
15:00−18n3597100 1.1 1022150
18:00−17n349793 1.1 102295
21:00−16nnw229791 0.1 102364
12 december, sun
sun1200:00−20n3210062 0.1 102426
03:00−22n339837 0.0 102541
06:00−24n449634 0.0 102758
09:00−26n459739 0.0 102768
12:00−27n469739 0.0 1027102
15:00−27n469739 0.0 1026105
18:00−29n469539 0.0 102693
21:00−30n579432 0.0 1025104
13 december, mon
mon1300:00−30n569535 0.0 1025102
03:00−31n579541 0.0 1024106
06:00−31n579698 0.0 1022116
09:00−33n579650 0.0 1022115
12:00−33n579639 0.0 1021131
15:00−33n589639 0.0 1019143
18:00−35n689739 0.0 1018140
21:00−36n689845 0.0 1018141